Location: ??
(35.5052°N, 139.7262°E)
Time: 01:43:34
(UTC+00:00)

Cosmos 1932 - Pass Details

Date: 20 October 2021
Orbit: 943 x 987 km, 65.0° (Epoch: 01 December)

Event Time Altitude Azimuth Distance (km) Brightness Sun altitude
Rises 09:17:35 0° 345° (NNW) 3,615 7.7 -16.5°
Reaches altitude 10° 09:21:36 10° 10° (N) 2,671 6.7 -17.4°
Enters shadow 09:24:44 14° 41° (NE) 2,391 6.2 -18.0°
